View from above orbital plane
|
View from above satellite
|
Ground track
|
The orbit data is extracted from the following two-line orbital elements,
1 38341U 12025E 22141.85387099 .00002136 00000-0 25301-3 0 9994
2 38341 98.5083 355.3536 0055827 131.3789 229.2244 14.84666015541706
Epoch (UTC): | 21 May 2022 20:29:34 |
Eccentricity: | 0.0055827 |
inclination: | 98.5083° |
perigee height: | 575 km |
apogee height: | 653 km |
right ascension of ascending node: | 355.3536° |
argument of perigee: | 131.3789° |
revolutions per day: | 14.84666015 |
mean anomaly at epoch: | 229.2244° |
orbit number at epoch: | 54170 |
The dashed part of the orbit path shows where the satellite is in the earth's shadow,
|
|